Wind_Speed
4 4 2 3 5 3 10 8 4 7 9 10 7 9 13 14 5 7 21 22 22 22 21 22 22 23 23 22 20 19 17 15 15 14 14 14 13 13 12 13 12 12 14 14 15 16 16 17 17
6 4 0 6 3 7 9 9 12 11 11 8 11 9 9 7 9 17 17 19 21 21 20 20 22 23 21 20 18 16 16 15 15 15 15 13 13 12 11 12 12 13 14 14 15 17 18 17 17
5 3 5 2 10 10 9 9 9 8 5 4 5 11 6 5 15 10 23 20 24 19 19 22 22 21 20 18 16 15 15 15 15 14 13 12 11 12 13 12 12 14 13 16 16 16 14 13 14
2 2 4 9 14 12 10 8 6 8 8 9 12 10 9 6 9 18 22 22 26 21 19 21 20 19 18 17 16 15 15 15 13 12 14 14 13 14 11 12 12 12 13 13 13 13 12 11 11
2 5 4 9 13 11 10 8 4 6 6 7 7 9 7 16 22 21 24 24 25 24 23 18 16 17 16 16 15 15 14 13 12 12 14 12 12 11 10 9 9 10 10 9 10 10 9 9 9
5 6 6 9 10 7 9 5 4 12 11 15 15 12 6 17 21 21 24 25 26 25 18 17 16 16 16 15 15 15 14 13 13 14 13 11 11 11 10 10 9 7 6 6 5 6 6 7 7
7 6 7 7 7 8 8 7 9 10 11 8 14 6 9 17 19 22 24 25 25 25 19 18 17 16 15 15 14 13 14 14 13 13 12 12 12 11 9 8 7 6 4 4 3 2 3 4 5
6 4 3 5 6 10 8 9 6 9 14 11 14 6 8 18 20 21 22 22 25 24 20 18 15 16 15 14 15 15 14 14 13 13 12 11 9 7 7 6 4 4 3 3 2 2 1 1 3
5 1 9 8 9 8 10 9 6 5 12 7 4 17 19 24 23 20 22 22 23 22 21 19 17 14 15 14 16 16 16 15 14 12 13 10 6 5 5 3 2 3 3 2 2 3 3 3 6
5 9 11 8 8 10 7 4 9 8 10 10 15 19 24 24 23 22 20 23 23 26 24 22 17 14 13 13 15 12 11 11 11 10 10 6 6 5 4 4 4 3 2 3 2 3 4 5 3
3 10 10 14 15 12 11 9 6 9 7 12 21 23 23 22 19 18 17 18 20 19 28 22 15 13 11 13 10 9 8 9 10 9 7 6 6 3 2 1 2 1 3 2 2 4 3 5 5
7 10 12 14 13 12 11 11 9 4 12 15 20 20 21 20 18 17 17 19 20 20 17 15 14 13 12 14 10 8 7 7 6 6 6 4 4 2 1 0 2 2 2 2 1 2 4 4 5
12 13 16 14 14 14 13 10 12 15 15 17 18 17 18 17 15 15 15 16 18 19 19 17 14 15 12 12 10 8 9 7 5 5 4 4 4 3 4 4 4 4 4 5 4 5 4 5 6
10 18 16 14 13 14 13 13 6 11 15 15 15 16 15 16 16 16 18 19 20 19 18 16 14 13 10 8 8 8 6 3 2 1 1 3 5 8 7 7 6 6 6 6 6 6 5 6 5
18 16 12 11 7 9 7 10 12 15 14 14 12 12 13 15 15 16 17 19 20 18 18 18 16 14 12 10 8 5 2 1 2 1 3 5 7 11 11 9 7 6 8 7 6 8 8 9 10
6 11 8 9 5 6 7 10 13 14 14 14 12 12 13 14 15 15 15 17 19 20 20 19 16 14 16 13 10 8 5 3 2 4 6 8 11 12 10 10 9 6 7 3 4 5 6 9 8
9 8 4 7 7 3 6 10 14 14 12 12 13 13 13 13 15 16 16 18 19 21 20 19 18 15 15 16 14 11 8 7 6 7 8 11 11 9 10 9 9 10 10 6 4 7 9 7 6
9 6 7 5 9 8 5 7 13 16 14 12 13 13 14 14 15 16 17 18 18 19 21 21 22 25 23 22 20 16 14 12 10 10 10 11 9 10 9 10 14 12 9 8 5 7 5 4 5
2 3 2 4 7 7 7 4 12 16 15 14 13 13 13 13 13 15 17 17 18 19 21 23 27 27 25 25 21 16 15 13 12 13 12 11 11 9 13 9 8 8 6 7 9 5 4 2 6
7 6 4 4 4 9 6 8 10 15 15 14 15 15 15 15 16 17 17 18 19 20 21 24 29 30 28 26 25 20 17 14 13 12 12 10 9 10 11 10 6 4 1 2 1 2 3 4 6
9 7 3 6 2 11 4 11 13 13 13 15 15 15 17 18 19 19 19 19 19 19 20 22 26 29 30 29 25 25 22 21 19 15 12 10 10 11 9 9 8 6 4 2 4 5 6 7 9
12 8 5 4 7 3 9 6 12 15 15 18 19 19 19 20 19 20 20 21 20 19 18 19 22 25 27 28 27 25 19 16 12 12 10 10 11 11 9 9 9 8 7 8 10 11 11 12 11
11 3 5 5 10 6 9 8 8 14 14 18 22 22 22 22 22 22 22 22 21 20 20 19 20 20 23 26 27 25 24 17 13 12 12 13 14 12 12 10 10 10 11 12 13 15 15 12 14
8 7 5 7 7 9 10 11 13 10 16 18 24 25 24 24 24 23 22 22 22 22 21 21 23 22 22 22 23 24 22 18 14 11 12 11 13 12 15 14 11 12 13 14 14 15 16 18 17
16 14 9 8 7 5 5 8 2 7 10 8 21 29 28 26 26 26 26 25 25 25 24 23 25 25 24 24 24 24 23 23 21 20 15 15 13 14 15 18 17 16 17 18 18 19 20 19 16
19 19 11 12 11 7 5 8 6 3 3 8 15 25 31 29 28 28 28 27 26 26 26 25 25 26 26 26 25 24 22 22 20 18 17 14 14 15 17 18 20 21 21 21 22 21 17 17 18
18 21 21 14 2 5 10 7 8 12 10 10 15 22 28 32 30 30 28 28 26 26 26 26 25 25 24 24 25 24 23 23 22 22 20 16 16 14 16 18 18 17 16 17 20 20 21 22 20
14 20 12 10 11 13 8 9 6 9 5 3 12 21 23 26 29 29 28 28 27 25 24 24 23 24 22 23 24 23 22 22 21 20 17 16 15 17 12 11 12 14 16 17 18 19 18 19 20
10 13 14 14 14 11 7 10 9 6 1 3 11 19 23 24 25 27 27 25 24 23 22 22 21 20 20 20 19 20 18 18 17 15 13 16 13 15 17 18 20 17 15 14 15 15 14 15 17
24 21 20 11 11 12 9 4 7 6 4 4 8 16 19 19 19 19 20 20 21 22 20 19 17 16 16 16 19 17 14 12 14 15 16 14 15 15 16 18 15 13 12 10 13 15 14 16 17
Wind_Direction
132 131 150 293 227 100 56 73 60 105 83 56 61 67 83 61 49 100 114 125 127 125 125 125 127 127 127 126 123 119 118 111 107 106 105 100 100 99 93 98 99 94 104 104 98 97 95 93 88
158 155 288 280 335 75 65 48 72 67 101 91 73 96 69 73 84 117 119 126 126 122 122 124 125 126 126 125 123 118 114 110 109 108 106 105 102 97 88 93 94 96 96 99 99 99 95 91 88
147 177 275 249 43 44 72 75 85 84 58 110 108 71 59 86 116 109 128 125 121 115 121 124 124 123 121 120 118 116 112 111 109 105 106 107 104 99 96 94 91 98 98 97 96 98 90 82 81
172 234 232 47 61 55 66 83 95 112 82 79 102 81 93 82 112 128 126 124 122 114 111 120 123 121 121 122 120 114 111 110 108 105 109 103 107 105 100 92 97 104 104 97 93 88 85 80 80
267 265 89 71 72 66 71 70 54 86 89 103 105 101 72 93 116 125 128 126 128 119 119 120 124 126 126 124 117 113 113 111 107 107 114 114 114 109 111 107 103 112 109 97 97 89 78 78 79
247 272 39 50 79 76 65 76 152 88 97 109 99 100 86 124 124 134 135 137 133 127 126 123 121 121 122 119 116 117 115 109 103 106 120 120 116 117 115 109 105 106 111 97 94 83 71 67 66
294 302 40 46 88 86 79 95 115 115 120 101 135 99 118 123 122 132 137 139 141 134 132 126 122 121 122 121 120 119 117 115 114 118 122 122 124 119 110 101 98 93 83 74 71 57 51 56 58
303 269 146 46 59 94 121 102 102 99 88 118 135 145 143 145 136 129 140 149 150 138 136 133 134 130 126 127 123 124 118 114 114 111 112 114 115 110 100 88 90 95 70 56 41 23 26 44 38
282 179 59 41 38 118 135 120 107 117 126 87 57 144 157 152 148 138 146 151 158 149 152 146 142 139 128 121 123 116 113 107 101 103 109 90 114 103 81 110 105 82 76 39 357 351 4 12 15
284 59 51 46 76 123 128 110 132 144 130 111 109 121 149 155 159 151 155 159 162 160 165 157 154 152 136 135 126 130 115 124 124 121 117 114 122 119 110 85 82 76 66 60 6 349 355 14 348
45 53 81 76 96 117 117 112 124 131 144 153 143 144 155 158 161 162 164 165 170 169 167 163 157 146 152 153 144 135 129 120 117 113 105 117 107 119 99 56 23 13 332 33 338 322 338 307 301
107 68 98 105 107 117 104 120 96 38 90 131 148 149 158 167 171 170 168 171 171 169 169 165 173 165 165 154 130 124 120 114 124 128 113 100 65 4 29 174 289 302 261 254 294 272 281 302 303
105 96 100 102 97 102 115 97 99 95 111 128 142 152 163 168 174 179 178 170 171 175 182 174 185 178 165 152 153 144 135 128 134 111 97 68 34 2 355 339 324 302 294 295 301 305 317 332 329
116 116 115 111 109 115 109 129 122 116 129 135 149 159 170 173 180 179 182 181 181 183 186 188 189 191 175 160 165 146 152 110 51 57 40 4 351 338 329 322 338 342 315 299 310 294 316 317 324
127 120 121 121 130 128 125 112 99 141 143 148 160 163 172 179 185 188 189 187 189 192 191 196 197 198 189 181 179 173 175 105 110 306 344 340 334 334 337 328 321 314 345 350 337 337 326 314 314
172 178 165 143 170 155 273 115 143 159 158 159 172 178 184 187 190 192 191 192 192 195 197 202 205 210 198 198 194 201 200 203 275 319 327 329 317 315 315 314 316 293 302 312 337 339 332 324 324
202 138 125 163 202 143 283 119 155 172 173 168 176 184 187 187 190 194 195 195 197 199 202 207 212 214 217 219 212 216 232 242 277 298 306 309 311 323 319 320 301 304 296 303 293 305 319 326 344
164 138 174 163 185 215 184 104 158 182 184 184 183 183 187 190 194 193 191 195 199 202 206 211 213 218 221 222 227 230 242 258 272 289 301 308 303 319 322 317 302 297 307 286 284 314 303 319 342
232 246 187 163 140 214 239 159 169 185 194 191 194 193 194 192 188 191 190 193 195 202 208 213 217 219 223 224 230 240 250 259 266 276 294 306 298 310 324 318 310 297 284 244 279 296 313 317 324
192 197 189 98 159 222 216 235 168 184 205 203 198 199 197 192 190 190 188 191 197 202 207 213 218 221 225 226 229 232 240 251 261 271 285 290 290 300 315 325 314 325 249 106 206 253 244 280 305
216 230 143 315 186 224 261 226 208 191 203 212 213 205 201 200 197 196 194 197 198 202 205 210 217 220 223 224 231 238 244 253 259 270 271 272 276 294 298 317 321 324 354 261 295 290 295 294 298
231 195 257 224 248 293 209 113 191 192 200 210 215 210 206 204 204 203 200 203 202 206 206 209 212 217 221 224 226 233 234 242 255 259 258 259 276 282 284 306 311 313 307 289 291 291 284 287 293
247 169 227 233 249 281 197 267 118 190 200 207 215 215 209 205 205 205 204 208 205 206 205 211 212 214 218 225 227 235 241 243 246 252 260 270 271 286 282 290 295 289 291 289 284 283 285 279 286
161 176 188 230 256 232 168 242 150 175 218 209 206 212 212 205 205 207 207 208 207 209 208 210 216 216 218 221 225 230 233 235 238 251 258 269 273 277 288 288 279 280 282 287 291 286 282 282 278
196 208 216 226 204 241 148 217 215 171 160 208 202 205 212 204 204 205 206 206 208 209 210 212 221 221 222 228 231 234 240 248 254 262 264 264 272 276 279 288 281 279 284 286 284 282 283 281 275
205 221 222 207 213 164 150 216 219 216 130 196 213 206 205 206 203 207 208 208 210 210 212 214 220 226 227 232 238 242 244 249 258 266 265 264 274 277 275 280 282 283 286 289 288 287 284 277 281
202 224 230 263 286 249 168 214 271 238 238 209 204 205 203 204 204 208 207 210 211 213 214 216 222 233 232 236 243 246 250 254 260 264 263 271 273 271 284 284 279 282 290 292 290 289 283 279 284
209 207 205 233 227 230 165 216 221 175 177 162 198 194 192 201 205 209 210 210 211 215 216 218 221 230 236 235 241 249 255 259 263 265 268 262 260 272 269 273 276 285 289 291 290 287 283 281 290
191 204 223 236 233 219 218 201 204 229 264 78 158 178 184 190 198 205 211 212 213 214 215 217 220 221 229 234 235 239 242 253 260 260 260 260 259 266 277 284 290 294 295 293 293 302 303 296 301
202 202 206 221 193 253 298 227 146 209 236 178 157 172 178 184 188 194 199 204 211 212 214 217 216 221 224 230 240 246 250 247 252 262 264 275 275 290 299 296 297 299 304 305 306 307 303 302 302
Height
1512 1513 1515 1515 1507 1493 1506 1511 1505 1513 1519 1524 1525 1523 1531 1537 1540 1552 1548 1553 1554 1554 1558 1560 1561 1562 1564 1566 1567 1568 1569 1569 1569 1570 1571 1571 1573 1573 1572 1573 1573 1574 1573 1574 1573 1574 1575 1575 1576
1516 1515 1516 1509 1499 1505 1517 1510 1517 1520 1527 1529 1528 1530 1531 1541 1544 1548 1553 1556 1557 1557 1560 1562 1565 1566 1567 1568 1570 1571 1571 1571 1572 1572 1573 1574 1575 1576 1575 1575 1575 1576 1576 1575 1576 1576 1577 1578 1578
1516 1516 1513 1501 1504 1517 1520 1517 1520 1527 1528 1528 1531 1534 1539 1546 1549 1550 1555 1557 1557 1561 1564 1566 1568 1570 1570 1571 1572 1573 1574 1574 1574 1575 1575 1576 1577 1577 1577 1577 1578 1578 1579 1578 1579 1579 1580 1581 1581
1517 1518 1512 1506 1514 1517 1517 1519 1523 1526 1528 1530 1532 1537 1544 1547 1551 1553 1556 1559 1559 1564 1567 1569 1571 1573 1574 1574 1575 1576 1575 1576 1577 1577 1577 1578 1578 1578 1579 1579 1580 1580 1582 1581 1582 1583 1583 1583 1583
1518 1512 1503 1509 1517 1519 1522 1525 1526 1526 1531 1532 1532 1541 1548 1552 1553 1556 1559 1562 1564 1566 1569 1572 1574 1574 1575 1576 1577 1577 1578 1578 1578 1579 1580 1580 1580 1580 1581 1581 1581 1582 1583 1584 1584 1585 1585 1585 1585
1515 1509 1506 1514 1519 1520 1525 1528 1528 1531 1535 1537 1540 1544 1552 1555 1556 1558 1560 1563 1567 1569 1572 1574 1575 1576 1577 1578 1579 1580 1580 1580 1580 1581 1581 1582 1582 1582 1582 1582 1583 1584 1585 1585 1586 1586 1587 1587 1587
1510 1502 1512 1511 1518 1520 1526 1528 1527 1531 1536 1539 1541 1547 1554 1556 1558 1561 1562 1566 1569 1571 1573 1575 1576 1578 1579 1580 1581 1582 1582 1582 1582 1583 1583 1584 1584 1584 1584 1585 1586 1586 1586 1586 1587 1587 1587 1587 1587
1513 1505 1507 1507 1512 1525 1528 1529 1532 1531 1539 1543 1544 1550 1554 1557 1560 1563 1565 1568 1571 1573 1575 1577 1578 1580 1582 1582 1582 1584 1584 1584 1584 1585 1585 1586 1587 1587 1587 1587 1587 1587 1588 1588 1588 1587 1587 1588 1588
1514 1502 1512 1513 1511 1522 1528 1529 1536 1538 1541 1544 1545 1547 1552 1557 1561 1565 1567 1570 1572 1574 1577 1578 1580 1582 1584 1585 1585 1586 1586 1586 1586 1587 1588 1588 1590 1590 1589 1588 1588 1588 1588 1588 1588 1588 1588 1588 1588
1507 1502 1515 1513 1516 1522 1528 1529 1535 1537 1540 1546 1549 1551 1555 1559 1563 1566 1569 1570 1573 1575 1577 1578 1582 1584 1586 1587 1588 1589 1589 1590 1588 1588 1588 1592 1590 1589 1590 1589 1589 1589 1589 1589 1588 1588 1589 1588 1591
1512 1511 1513 1518 1521 1525 1529 1533 1535 1535 1538 1546 1549 1553 1557 1561 1565 1568 1571 1573 1576 1579 1580 1580 1583 1586 1589 1588 1591 1591 1592 1590 1589 1590 1590 1590 1590 1590 1592 1592 1592 1591 1591 1592 1591 1590 1591 1590 1590
1511 1516 1518 1524 1526 1527 1530 1534 1536 1536 1539 1545 1551 1556 1558 1563 1567 1570 1572 1574 1578 1581 1584 1586 1587 1588 1589 1590 1591 1592 1592 1592 1593 1591 1591 1591 1594 1592 1590 1592 1592 1591 1591 1591 1590 1591 1588 1588 1586
1513 1518 1522 1525 1529 1531 1533 1535 1539 1543 1547 1550 1554 1558 1562 1565 1568 1571 1574 1576 1579 1582 1585 1587 1587 1587 1589 1590 1591 1592 1593 1593 1593 1593 1592 1592 1592 1592 1592 1591 1591 1590 1591 1591 1590 1588 1588 1587 1586
1516 1519 1523 1526 1531 1532 1532 1538 1537 1548 1550 1554 1557 1559 1562 1565 1568 1570 1573 1576 1579 1582 1585 1587 1588 1589 1590 1591 1592 1594 1594 1595 1595 1594 1593 1593 1592 1593 1591 1591 1591 1592 1591 1590 1589 1589 1587 1586 1585
1518 1519 1522 1526 1529 1532 1529 1533 1540 1547 1551 1555 1558 1560 1562 1564 1567 1569 1572 1576 1580 1583 1586 1587 1587 1589 1590 1592 1593 1594 1595 1594 1595 1595 1594 1593 1592 1592 1591 1590 1591 1590 1588 1588 1588 1587 1588 1586 1585
1513 1511 1516 1525 1528 1531 1529 1537 1543 1547 1548 1552 1556 1559 1561 1563 1566 1568 1571 1573 1577 1581 1583 1586 1588 1590 1590 1591 1593 1594 1594 1595 1595 1595 1594 1594 1592 1591 1590 1590 1589 1590 1586 1587 1588 1586 1585 1584 1583
1511 1513 1517 1525 1525 1527 1526 1530 1539 1544 1546 1549 1553 1557 1559 1562 1564 1566 1569 1572 1576 1579 1582 1584 1586 1589 1590 1591 1592 1593 1594 1594 1595 1595 1594 1593 1591 1590 1589 1590 1589 1588 1586 1586 1585 1586 1584 1583 1583
1513 1513 1513 1518 1522 1524 1524 1526 1535 1541 1543 1546 1549 1552 1555 1557 1560 1563 1567 1570 1574 1577 1579 1580 1583 1585 1587 1589 1590 1592 1593 1594 1595 1595 1594 1592 1591 1590 1588 1588 1586 1585 1586 1586 1585 1584 1584 1582 1582
1503 1509 1514 1511 1517 1522 1519 1520 1529 1536 1539 1541 1545 1549 1552 1554 1557 1560 1564 1567 1570 1573 1574 1576 1578 1581 1584 1586 1588 1591 1592 1593 1593 1592 1591 1590 1589 1588 1587 1586 1583 1583 1582 1583 1583 1584 1583 1584 1581
1505 1510 1512 1512 1514 1520 1515 1519 1518 1528 1533 1534 1540 1544 1548 1551 1554 1557 1561 1564 1565 1567 1569 1571 1574 1577 1581 1583 1586 1588 1590 1590 1591 1590 1590 1589 1588 1587 1586 1585 1583 1581 1580 1579 1579 1581 1582 1581 1579
1503 1508 1510 1515 1516 1514 1518 1519 1516 1521 1527 1530 1534 1539 1544 1546 1550 1554 1558 1560 1562 1564 1566 1568 1570 1573 1577 1580 1583 1584 1586 1586 1587 1587 1587 1588 1586 1586 1585 1584 1583 1581 1580 1580 1579 1579 1579 1581 1580
1506 1502 1508 1512 1518 1516 1511 1519 1513 1512 1520 1524 1527 1533 1538 1542 1546 1550 1555 1556 1559 1562 1565 1565 1566 1570 1573 1575 1578 1580 1582 1585 1587 1587 1587 1586 1584 1584 1582 1581 1581 1580 1579 1579 1578 1578 1577 1576 1577
1502 1501 1507 1510 1513 1513 1515 1515 1513 1507 1515 1515 1520 1524 1531 1536 1541 1544 1549 1553 1557 1559 1562 1563 1565 1567 1570 1572 1575 1577 1578 1582 1583 1585 1585 1583 1581 1581 1580 1579 1579 1578 1577 1576 1575 1574 1573 1574 1572
1501 1506 1508 1507 1505 1526 1501 1509 1505 1507 1504 1505 1512 1518 1523 1529 1535 1540 1545 1549 1552 1555 1558 1561 1562 1565 1567 1569 1571 1573 1576 1578 1581 1582 1582 1582 1581 1580 1578 1577 1576 1576 1575 1573 1573 1571 1569 1568 1567
1499 1505 1523 1529 1526 1518 1502 1511 1491 1486 1493 1496 1502 1510 1516 1523 1529 1534 1538 1542 1546 1549 1553 1557 1558 1560 1563 1566 1568 1571 1573 1575 1576 1577 1579 1579 1578 1578 1575 1573 1573 1572 1571 1570 1568 1566 1565 1563 1561
1498 1495 1508 1538 1520 1507 1509 1515 1498 1485 1490 1493 1498 1501 1509 1515 1522 1527 1532 1537 1540 1544 1547 1551 1553 1556 1560 1562 1565 1568 1570 1571 1573 1574 1574 1576 1576 1575 1572 1570 1569 1568 1567 1566 1564 1562 1562 1559 1556
1493 1498 1481 1493 1493 1497 1496 1493 1486 1482 1484 1489 1494 1496 1500 1508 1515 1521 1527 1532 1536 1539 1542 1545 1549 1552 1556 1559 1561 1563 1566 1568 1569 1570 1570 1570 1570 1570 1566 1566 1565 1565 1563 1562 1560 1559 1557 1553 1551
1479 1483 1502 1495 1516 1523 1501 1500 1492 1484 1479 1485 1489 1492 1499 1504 1511 1516 1521 1526 1531 1535 1539 1543 1546 1549 1553 1555 1557 1560 1561 1563 1564 1564 1564 1565 1564 1563 1563 1562 1561 1561 1559 1558 1556 1553 1549 1547 1545
1488 1481 1482 1476 1484 1502 1509 1498 1471 1478 1478 1483 1486 1491 1496 1501 1506 1511 1517 1523 1527 1532 1536 1539 1544 1547 1549 1551 1554 1555 1557 1558 1559 1560 1560 1559 1559 1558 1557 1557 1556 1555 1553 1552 1550 1547 1544 1543 1540
1467 1472 1476 1489 1504 1487 1487 1484 1466 1473 1478 1484 1484 1490 1493 1499 1504 1509 1514 1519 1523 1527 1533 1537 1540 1543 1545 1547 1548 1551 1553 1554 1555 1554 1554 1553 1553 1554 1554 1552 1551 1550 1549 1547 1545 1542 1541 1538 1535